IN3HOQ-13 Weather Reports


Display with metric or nautical units.
time (UTC)temp
F
wind
direction
speed
MPH
gust
MPH
rain 1hr
in
rain 24hr
in
rain mn
in
humidity
%
barometer
mb
20191014190507 55 258 0.0 0.0 0.00 0.00 0.00 100 937.2
20191014190007 55 250 0.0 0.0 0.00 0.00 0.00 100 937.4
20191014185506 56 251 0.0 0.0 0.00 0.00 0.00 100 937.4
20191014185007 56 255 0.0 0.0 0.00 0.00 0.00 100 937.4
20191014184507 56 271 0.0 0.0 0.00 0.00 0.00 100 937.4
20191014184007 55 269 0.0 0.0 0.00 0.00 0.00 100 937.4
20191014183508 55 272 0.0 0.0 0.00 0.00 0.00 100 937.5
20191014183007 56 260 0.0 0.0 0.00 0.00 0.00 100 937.6
20191014182508 56 263 0.0 0.0 0.00 0.00 0.00 99 937.5
20191014182007 56 258 0.0 0.0 0.00 0.00 0.00 97 937.5
20191014181507 56 262 0.0 0.0 0.00 0.00 0.00 96 937.4
20191014181008 56 259 0.0 0.0 0.00 0.00 0.00 94 937.4
20191014180507 56 256 0.0 0.0 0.00 0.00 0.00 94 937.2
20191014180013 56 257 0.0 0.0 0.00 0.00 0.00 93 937.2
20191014175510 55 249 0.0 0.0 0.00 0.00 0.00 90 937.4
20191014175010 56 245 0.0 0.0 0.00 0.00 0.00 89 937.4
20191014174510 56 251 0.0 0.0 0.00 0.00 0.00 86 937.4
20191014174011 56 251 0.0 0.0 0.00 0.00 0.00 84 937.4
20191014173509 56 259 0.0 0.0 0.00 0.00 0.00 81 937.4
20191014173009 57 255 0.0 0.0 0.00 0.00 0.00 79 937.3
20191014172510 58 254 0.0 0.0 0.00 0.00 0.00 77 937.2
20191014172008 58 46 0.0 0.0 0.00 0.00 0.00 75 937.2
20191014171508 59 46 0.0 0.0 0.00 0.00 0.00 74 937.1
20191014171009 58 45 0.0 0.0 0.00 0.00 0.00 73 937.1
20191014170507 59 45 0.0 0.0 0.00 0.00 0.00 72 937.1
20191014165959 59 47 0.0 0.0 0.00 0.00 0.00 72 937.0
20191014165459 59 47 0.0 0.0 0.00 0.00 0.00 71 936.9
20191014165000 59 45 0.0 0.0 0.00 0.00 0.00 71 937.0
20191014164501 60 42 0.0 0.0 0.00 0.00 0.00 70 937.0
20191014164002 60 25 0.0 0.0 0.00 0.00 0.00 70 936.9
20191014163504 60 37 0.0 0.0 0.00 0.00 0.00 70 936.8
20191014163004 60 71 0.0 0.0 0.00 0.00 0.00 70 936.8
20191014162506 59 47 0.0 0.0 0.00 0.00 0.00 70 936.8
20191014162004 60 56 0.0 0.0 0.00 0.00 0.00 70 936.8
20191014161506 60 58 0.0 0.0 0.00 0.00 0.00 69 936.8
20191014161006 60 44 0.0 0.0 0.00 0.00 0.00 69 936.8
20191014160507 60 67 0.0 0.0 0.00 0.00 0.00 68 936.8
20191014160007 61 85 0.0 0.0 0.00 0.00 0.00 68 936.8
20191014155508 61 68 0.0 0.0 0.00 0.00 0.00 67 936.7
20191014155007 61 85 0.0 0.0 0.00 0.00 0.00 67 936.6
20191014154508 61 85 0.0 0.0 0.00 0.00 0.00 67 936.7
20191014154008 61 83 0.0 0.0 0.00 0.00 0.00 67 936.6
20191014153507 61 57 0.0 0.0 0.00 0.00 0.00 67 936.6
20191014153007 61 49 0.0 0.0 0.00 0.00 0.00 66 936.6
20191014152506 61 91 0.0 0.0 0.00 0.00 0.00 65 936.7
20191014152007 61 88 0.0 0.0 0.00 0.00 0.00 65 936.6
20191014151507 62 52 0.0 0.0 0.00 0.00 0.00 65 936.5
20191014151006 62 59 0.0 0.0 0.00 0.00 0.00 65 936.6
20191014150508 62 84 0.0 0.0 0.00 0.00 0.00 64 936.6
20191014150007 62 80 0.0 0.0 0.00 0.00 0.00 64 936.5
20191014145508 62 71 0.0 0.0 0.00 0.00 0.00 63 936.5
20191014145007 63 79 0.0 0.0 0.00 0.00 0.00 63 936.5
20191014144508 63 67 0.0 0.0 0.00 0.00 0.00 63 936.4
20191014144008 63 77 0.0 0.0 0.00 0.00 0.00 63 936.5
20191014143508 63 98 0.0 0.0 0.00 0.00 0.00 63 936.4
20191014143011 63 67 0.0 0.0 0.00 0.00 0.00 62 936.4
20191014141518 63 72 0.0 0.0 0.00 0.00 0.00 63 936.2
20191014140954 63 71 0.0 0.0 0.00 0.00 0.00 62 936.2
20191014140352 63 68 0.0 0.0 0.00 0.00 0.00 62 936.3
20191014135749 63 70 0.0 0.0 0.00 0.00 0.00 62 936.4
20191014135142 63 75 0.0 0.0 0.00 0.00 0.00 62 936.4
20191014134541 63 72 0.0 0.0 0.00 0.00 0.00 62 936.5
20191014133936 64 68 0.0 0.0 0.00 0.00 0.00 62 936.5
20191014133333 64 69 0.0 0.0 0.00 0.00 0.00 62 936.6
20191014132729 64 80 0.0 0.0 0.00 0.00 0.00 63 936.6
20191014132127 64 89 0.0 0.0 0.00 0.00 0.00 62 936.6
20191014131518 64 76 0.0 0.0 0.00 0.00 0.00 62 936.7
20191014130957 64 91 0.0 0.0 0.00 0.00 0.00 62 936.6
20191014130352 63 82 0.0 0.0 0.00 0.00 0.00 62 936.6
20191014125747 63 66 0.0 0.0 0.00 0.00 0.00 61 936.6
20191014125144 63 84 0.0 0.0 0.00 0.00 0.00 61 936.6
20191014124541 63 61 0.0 0.0 0.00 0.00 0.00 61 936.7
20191014123937 63 75 0.0 0.0 0.00 0.00 0.00 62 936.8
20191014123336 63 57 0.0 0.0 0.00 0.00 0.00 63 936.9
20191014122728 63 57 0.0 0.0 0.00 0.00 0.00 64 936.9
20191014122125 63 59 0.0 0.0 0.00 0.00 0.00 64 937.0
20191014121523 63 64 0.0 0.0 0.00 0.00 0.00 64 937.0
20191014120935 63 71 0.0 0.0 0.00 0.00 0.00 65 937.2
20191014120339 63 66 0.0 0.0 0.00 0.00 0.00 65 937.3
20191014115729 63 86 0.0 0.0 0.00 0.00 0.00 66 937.4
20191014115127 62 78 0.0 0.0 0.00 0.00 0.00 67 937.5
20191014114526 62 68 0.0 0.0 0.00 0.00 0.00 68 937.6
20191014113924 62 87 0.0 0.0 0.00 0.00 0.00 70 937.8
20191014113324 62 141 0.0 0.0 0.00 0.00 0.00 72 937.8
20191014112723 62 108 0.0 0.0 0.00 0.00 0.00 74 937.9
20191014112126 61 122 0.0 0.0 0.00 0.00 0.00 76 938.0
20191014111524 61 139 0.0 0.0 0.00 0.00 0.00 77 938.0
20191014110939 60 125 0.0 0.0 0.00 0.00 0.00 79 938.0
20191014110337 60 91 0.0 0.0 0.00 0.00 0.00 80 938.2
20191014105738 59 83 0.0 0.0 0.00 0.00 0.00 82 938.5
20191014105137 59 87 0.0 0.0 0.00 0.00 0.00 82 938.6
20191014104534 58 99 0.0 0.0 0.00 0.00 0.00 84 938.8
20191014103931 58 85 0.0 0.0 0.00 0.00 0.00 85 938.9
20191014103331 58 80 0.0 0.0 0.00 0.00 0.00 88 939.0
20191014102728 57 101 0.0 0.0 0.00 0.00 0.00 90 939.1
20191014102129 57 113 0.0 0.0 0.00 0.00 0.00 90 939.1
20191014101525 57 77 0.0 0.0 0.00 0.00 0.00 91 939.2
20191014100939 56 107 0.0 0.0 0.00 0.00 0.00 92 939.4
20191014100337 56 75 0.0 0.0 0.00 0.00 0.00 93 939.4
20191014095737 56 73 0.0 0.0 0.00 0.00 0.00 94 939.4
20191014095134 55 85 0.0 0.0 0.00 0.00 0.00 95 939.5
20191014094534 56 64 0.0 0.0 0.00 0.00 0.00 99 939.6
20191014093931 56 80 0.0 0.0 0.00 0.00 0.00 100 939.6
20191014093332 55 80 0.0 0.0 0.00 0.00 0.00 100 939.7
20191014092730 55 63 0.0 0.0 0.00 0.00 0.00 100 939.7
20191014092131 55 150 0.0 0.0 0.00 0.00 0.00 100 939.7
20191014091528 54 85 0.0 0.0 0.00 0.00 0.00 100 939.8
20191014090929 54 113 0.0 0.0 0.00 0.00 0.00 100 939.9
20191014090331 54 143 0.0 0.0 0.00 0.00 0.00 100 940.0
20191014085730 54 144 0.0 0.0 0.00 0.00 0.00 100 940.0
20191014085131 54 144 0.0 0.0 0.00 0.00 0.00 2 940.2
20191014084530 53 144 0.0 0.0 0.00 0.00 0.00 2 940.2
20191014083930 52 145 0.0 0.0 0.00 0.00 0.00 2 940.3
20191014083332 52 144 0.0 0.0 0.00 0.00 0.00 10 940.4
20191014082732 51 144 0.0 0.0 0.00 0.00 0.00 15 940.5
20191014082130 50 144 0.0 0.0 0.00 0.00 0.00 16 940.6
20191014081529 50 145 0.0 0.0 0.00 0.00 0.00 20 940.7
20191014080932 50 145 0.0 0.0 0.00 0.00 0.00 26 940.5
20191014080331 49 231 0.0 0.0 0.00 0.00 0.00 24 940.6
20191014075733 49 231 0.0 0.0 0.00 0.00 0.00 19 940.8
20191014075134 48 231 0.0 0.0 0.00 0.00 0.00 14 940.8
20191014074536 47 268 0.0 0.0 0.00 0.00 0.00 5 940.8
20191014073934 46 273 0.0 0.0 0.00 0.00 0.00 1 940.8
20191014073336 46 264 0.0 0.0 0.00 0.00 0.00 11 940.8
20191014072735 46 252 0.0 0.0 0.00 0.00 0.00 100 940.9
20191014072135 45 267 0.0 0.0 0.00 0.00 0.00 100 940.9
20191014071536 45 265 0.0 0.0 0.00 0.00 0.00 100 940.8
20191014070901 45 267 0.0 0.0 0.00 0.00 0.00 100 940.8
20191014070303 45 256 0.0 0.0 0.00 0.00 0.00 100 940.8
20191014065710 44 255 0.0 0.0 0.00 0.00 0.00 100 940.8
20191014065110 44 255 0.0 0.0 0.00 0.00 0.00 100 940.9
20191014064515 44 256 0.0 0.0 0.00 0.00 0.00 100 940.9
20191014063919 44 255 0.0 0.0 0.00 0.00 0.00 100 940.8
20191014063322 45 256 0.0 0.0 0.00 0.00 0.00 100 940.7
20191014062727 45 255 0.0 0.0 0.00 0.00 0.00 100 940.7
20191014062130 45 256 0.0 0.0 0.00 0.00 0.00 100 940.8
20191014061533 45 256 0.0 0.0 0.00 0.00 0.00 100 940.6
20191014060932 46 256 0.0 0.0 0.00 0.00 0.00 100 940.6
20191014060339 45 255 0.0 0.0 0.00 0.00 0.00 100 940.5
20191014055740 46 256 0.0 0.0 0.00 0.00 0.00 100 940.0
20191014055139 46 256 0.0 0.0 0.00 0.00 0.00 100 940.0
20191014054537 46 256 0.0 0.0 0.00 0.00 0.00 100 939.9
20191014053936 46 256 0.0 0.0 0.00 0.00 0.00 100 940.0
20191014053339 46 256 0.0 0.0 0.00 0.00 0.00 100 939.9
20191014052738 46 256 0.0 0.0 0.00 0.00 0.00 100 940.0
20191014052138 46 255 0.0 0.0 0.00 0.00 0.00 100 940.2
20191014051536 46 258 0.0 0.0 0.00 0.00 0.00 100 940.2
20191014050921 46 255 0.0 0.0 0.00 0.00 0.00 100 940.2
20191014050322 46 268 0.0 0.0 0.00 0.00 0.00 100 940.3
20191014045725 46 256 0.0 0.0 0.00 0.00 0.00 100 940.3
20191014045122 46 254 0.0 0.0 0.00 0.00 0.00 100 940.4
20191014044525 45 238 0.0 0.0 0.00 0.00 0.00 100 940.4
20191014043929 45 247 0.0 0.0 0.00 0.00 0.00 100 940.5
20191014043330 44 251 0.0 0.0 0.00 0.00 0.00 100 940.4
20191014042735 45 238 0.0 0.0 0.00 0.00 0.00 100 940.5
20191014042137 45 247 0.0 0.0 0.00 0.00 0.00 100 940.6
20191014041539 45 234 0.0 0.0 0.00 0.00 0.00 100 940.7
20191014040915 45 238 0.0 0.0 0.00 0.00 0.00 100 940.8
20191014040320 45 255 0.0 0.0 0.00 0.00 0.00 100 940.8
20191014035719 46 264 0.0 0.0 0.00 0.00 0.00 100 940.8
20191014035122 45 257 0.0 0.0 0.00 0.00 0.00 100 940.8
20191014034522 45 265 0.0 0.0 0.00 0.00 0.00 100 940.9
20191014033927 45 250 0.0 0.0 0.00 0.00 0.00 100 941.0
20191014033330 46 262 0.0 0.0 0.00 0.00 0.00 100 941.0
20191014032731 45 266 0.0 0.0 0.00 0.00 0.00 100 941.0
20191014032138 45 271 0.0 0.0 0.00 0.00 0.00 100 941.2
20191014031538 45 268 0.0 0.0 0.00 0.00 0.00 100 941.2
20191014030916 45 253 0.0 0.0 0.00 0.00 0.00 100 941.2
20191014030320 46 277 0.0 0.0 0.00 0.00 0.00 100 941.1
20191014025725 46 277 0.0 0.0 0.00 0.00 0.00 100 941.2
20191014025125 46 277 0.0 0.0 0.00 0.00 0.00 100 941.1
20191014024530 46 277 0.0 0.0 0.00 0.00 0.00 100 941.2
20191014023930 47 277 0.0 0.0 0.00 0.00 0.00 100 941.0
20191014023335 47 277 0.0 0.0 0.00 0.00 0.00 100 941.1
20191014022735 46 278 0.0 0.0 0.00 0.00 0.00 100 940.9
20191014022139 47 277 0.0 0.0 0.00 0.00 0.00 100 940.9
20191014021541 47 277 0.0 0.0 0.00 0.00 0.00 100 940.9
20191014020918 47 277 0.0 0.0 0.00 0.00 0.00 100 940.8
20191014020323 47 278 0.0 0.0 0.00 0.00 0.00 100 940.8
20191014015726 47 277 0.0 0.0 0.00 0.00 0.00 100 940.8
20191014015129 47 277 0.0 0.0 0.00 0.00 0.00 100 940.8
20191014014531 47 277 0.0 0.0 0.00 0.00 0.00 100 940.8
20191014013934 46 246 0.0 0.0 0.00 0.00 0.00 100 940.8
20191014013338 46 246 0.0 0.0 0.00 0.00 0.00 100 940.8
20191014012735 47 256 0.0 0.0 0.00 0.00 0.00 100 940.8
20191014012140 47 259 0.0 0.0 0.00 0.00 0.00 100 940.9
20191014011540 46 264 0.0 0.0 0.00 0.00 0.00 100 940.9
20191014010935 47 255 0.0 0.0 0.00 0.00 0.00 100 941.0
20191014010336 47 246 0.0 0.0 0.00 0.00 0.00 100 941.1
20191014005738 47 251 0.0 0.0 0.00 0.00 0.00 100 941.1
20191014005137 47 250 0.0 0.0 0.00 0.00 0.00 100 941.2
20191014004536 48 248 0.0 0.0 0.00 0.00 0.00 100 941.2
20191014003938 48 248 0.0 0.0 0.00 0.00 0.00 100 941.3
20191014003339 47 260 0.0 0.0 0.00 0.00 0.00 100 941.3
20191014002740 47 262 0.0 0.0 0.00 0.00 0.00 100 941.5
20191014002142 47 259 0.0 0.0 0.00 0.00 0.00 100 941.5
20191014001544 47 261 0.0 0.0 0.00 0.00 0.00 100 941.5
20191014000920 47 246 0.0 0.0 0.00 0.00 0.00 100 941.5
20191014000325 47 263 0.0 0.0 0.00 0.00 0.00 100 941.5
20191013235728 47 253 0.0 0.0 0.00 0.00 0.00 100 941.5
20191013235129 48 261 0.0 0.0 0.00 0.00 0.00 100 941.5
20191013234532 47 260 0.0 0.0 0.00 0.00 0.00 100 941.5
20191013233933 47 261 0.0 0.0 0.00 0.00 0.00 100 941.6
20191013233338 47 260 0.0 0.0 0.00 0.00 0.00 100 941.6
20191013232740 47 256 0.0 0.0 0.00 0.00 0.00 100 941.5
20191013232146 48 267 0.0 0.0 0.00 0.00 0.00 100 941.6
20191013231545 48 267 0.0 0.0 0.00 0.00 0.00 100 941.5
20191013230917 48 267 0.0 0.0 0.00 0.00 0.00 100 941.5
20191013230321 48 267 0.0 0.0 0.00 0.00 0.00 100 941.5
20191013225728 48 267 0.0 0.0 0.00 0.00 0.00 100 941.6
20191013225128 49 267 0.0 0.0 0.00 0.00 0.00 100 941.6
20191013224534 49 267 0.0 0.0 0.00 0.00 0.00 100 941.6
20191013223935 49 268 0.0 0.0 0.00 0.00 0.00 100 941.6
20191013223339 49 267 0.0 0.0 0.00 0.00 0.00 100 941.5
20191013222741 49 268 0.0 0.0 0.00 0.00 0.00 100 941.5
20191013222145 49 267 0.0 0.0 0.00 0.00 0.00 100 941.5
20191013221547 49 267 0.0 0.0 0.00 0.00 0.00 100 941.5
20191013220919 49 270 0.0 0.0 0.00 0.00 0.00 100 941.6
20191013220323 49 270 0.0 0.0 0.00 0.00 0.01 100 941.6
20191013215726 50 271 0.0 0.0 0.00 0.00 0.01 100 941.6
20191013215130 49 260 0.0 0.0 0.00 0.00 0.01 100 941.6
20191013214534 49 265 0.0 0.0 0.00 0.00 0.01 100 941.6
20191013213939 49 277 0.0 0.0 0.00 0.00 0.01 100 941.6
20191013213340 49 252 0.0 0.0 0.00 0.00 0.01 100 941.6
20191013212742 50 268 0.0 0.0 0.00 0.00 0.01 100 941.6
20191013212147 50 259 0.0 0.0 0.00 0.00 0.01 100 941.6
20191013211549 50 273 0.0 0.0 0.00 0.00 0.01 100 941.6
20191013210916 50 263 0.0 0.0 0.00 0.00 0.01 100 941.5
20191013210321 50 262 0.0 0.0 0.00 0.00 0.01 100 941.5
20191013205724 50 276 0.0 0.0 0.00 0.00 0.01 100 941.5
20191013205127 50 270 0.0 0.0 0.00 0.00 0.01 100 941.6
20191013204533 50 272 0.0 0.0 0.00 0.00 0.01 100 941.6
20191013203934 50 270 0.0 0.0 0.00 0.00 0.01 100 941.5
20191013203338 50 272 0.0 0.0 0.00 0.00 0.01 100 941.5
20191013202740 50 264 0.0 0.0 0.00 0.00 0.01 100 941.5
20191013202146 50 252 0.0 0.0 0.00 0.00 0.01 100 941.5
20191013201551 50 253 0.0 0.0 0.00 0.00 0.01 100 941.5
20191013200916 50 263 0.0 0.0 0.00 0.00 0.01 100 941.5
20191013200321 51 261 0.0 0.0 0.00 0.00 0.01 100 941.5
20191013195726 50 254 0.0 0.0 0.00 0.00 0.01 100 941.5
20191013195127 51 248 0.0 0.0 0.00 0.00 0.01 100 941.5
20191013194534 50 274 0.0 0.0 0.00 0.00 0.01 100 941.5
20191013193934 51 255 0.0 0.0 0.00 0.00 0.01 100 941.4
20191013193339 51 223 0.0 0.0 0.00 0.00 0.01 100 941.4
20191013192742 52 258 0.0 0.0 0.00 0.00 0.01 100 941.4
20191013192147 51 272 0.0 0.0 0.00 0.00 0.01 100 941.4
20191013191550 51 277 0.0 0.0 0.00 0.00 0.01 100 941.3
20191013190920 51 248 0.0 0.0 0.00 0.00 0.01 100 941.3